BLOCK DM-SL R/B, 55507

Orbit data source: Space-Track

BLOCK DM-SL R/B, 55507 is space debris in GEO originally from a launch on Sun, 05 Feb 2023 UTC launched from the Tyuratam Missile And Space Complex (TTMTR). Debris objects in space refer to the collection of defunct objects orbiting the Earth. Examples of debris include non-operational satellites, rocket bodies, and fragments generated from explosions, collisions, or faulty payload assembly.

Not visible in the next 10 days
Identifier
55507, 2023-016B
Orbit
GEO
Country
Flag of CISCIS
Related business
Manufacturer
RKKE
Mission
Spacecraft
Bus & Motor
BLOK DM2, 11D58M
Mass
2,440 kg wet, 2,440 kg dry
Launch date (UTC)
2023-02-05 (3 years ago)
Launch vehicle
Unknown
Launch site
Tyuratam Missile And Space Complex (TTMTR)
Object type
Payload
Rocket body
Debris
Shape & HBR
Cyl, 3.5 m
Radar Cross Section
26.008 m², Large (>1 m²)

Expand to show TLE details & history
Last TLE update: 2 days ago

TLE from 2 days ago
0 BLOCK DM-SL R/B
1 55507U 23016B   25293.76316255 -.00000039  00000-0  00000+0 0  9992
2 55507   2.0407  83.0576 0092293 238.2925 121.2012  1.03218606 10201
Epoch: 2025-10-20T18:18Z
TLE epoch observation values (Epoch: 2025-10-20T18:18:57.244Z)
Latitude
-0.00002°
Longitude
139.22235°
Altitude
35,177.7 km
Speed
3.09 km/s
True Right ascension
05h 33m 41s
True Declination
0° 00' 00"
Sunlit
Object was in daylight at epoch
Visualization orbit readout
Latitude
Unknown
Longitude
Unknown
Altitude
Unknown
Speed
Unknown
Apparent Right ascension
Unknown
Apparent Declination
Unknown
Sunlit
N/A
Visualization observer readout
Local Sidereal Time
05:39:31
Azimuth
Unknown
Elevation
Unknown
Doppler factor
Unknown
Orbital elements
Apogee altitude
35,363.018 km
Perigee altitude
34,599.581 km
Semi-major axis
41,359.436 km
Eccentricity
0.00923
Inclination
2.0407°
RAAN
83.0576°
Arg. of periapsis
238.2925°
True anomaly
122.10041°
Mean anomaly
121.2012°
Eccentric anomaly
121.65134°
Mean motion
0.25804 °/min
Orbital period
1,395.15 mins
BSTAR
0
Loading maneuver chart data...
Computing Atmospheric mass density...
Loading historical data...
Loading historical data...
Loading historical data...
Loading historical data...
Loading historical data...
Loading historical data...
Loading historical data...
Other satellites on launch #16 in the year 2023 (2023-02-05 UTC)

Documentation

Showing up to 5 results
|